Holloman Air Force Base
KHMN : now visible

Airfield :











YOU CAN JOIN US ON...

 
LOGIN :

Register | Disclaimer

   EN    FR    IT 

 









Legend :    VFR   Marginal VFR   IFR   Intensive IFR   Very Intensive IFR
Visi :
Ceiling :
>= 8 km
>= 3000ft
5 to 8 km
1000 to 3000 ft
1500m to 5 km
500 to 1000 ft
800 to 1500m
200 to 500 ft
< 800m
< 200 ft
Symbols :   Thunderstorms  Fog  Heavy snow  Heavy precipitations  Wind > 20 kt







- Airport Elevation : 4093 ft


KHMN - Holloman Air Force Base

CURRENT METAR :
  • 210758Z AUTO 16006KT 10SM CLR 26/08 A2998 RMK AO2 SLP070 T02630078 $

EXPIRED METARs :
  • 210658Z AUTO 07007KT 10SM FEW180 26/07 A2997 RMK AO2 SLP067 T02600071 403860202 $
  • 210558Z AUTO 05003KT 10SM FEW120 29/07 A2998 RMK AO2 SLP070 T02910070 10386 20290 52019 $

Expired Forecast.
KZAB FIR / North America



MET'MAP, your aeronautical weather chart ! - Copyright ORBIFLY December 2007 - Disclaimer

ORBIFLY MET'MAP TEAM :

Programming & Development : Alexandra Zaïnal
Concept & Development : Baudouin d'Aumeries
Co-Development & Prog : Marc-Olivier Méhu
Technical & hardware support : Manuel Goepfert

Contact : metmap@orbifly.com




SOURCES & CREDITS :

   NOAA       Earth
Advisory